Flag for Switzerland Weather past 2 weeks in Mendrisio, Ticino, Switzerland

Now
53 °F

Cool.


Feels Like: 52 °F
Forecast: 31 / 37 °F
Wind: 6 mph from Southwest

Location: Stabio

Current Time: Mar 4, 2015 at 1:59:50 PM

Latest Report: Mar 4, 2015 at 1:00 PM


Visibility: N/A

Pressure: 30.10 "Hg

Humidity: 54%

Dew point: 37 °F

Location of MendrisioLocation

Historic Weather in Mendrisio — Graph

°F

Mendrisio temperature yesterday

Maximum temperature yesterday: 59 °F (at 12:00 PM)
Minimum temperature yesterday: 35 °F (at 7:00 AM)
Average temperature yesterday: 48 °F

Past Weeks' High & Low Weather Summary

 TemperatureHumidityPressure
High59 °F (Mar 3, 12:00 PM)100% (Feb 18, 12:00 AM)30.65 "Hg (Feb 18, 12:00 AM)
Low26 °F (Feb 26, 8:00 AM)18% (Feb 24, 11:00 PM)29.58 "Hg (Feb 22, 3:00 PM)
Average41 °F67%30.04 "Hg
* Reported Feb 17 12:00 Noon — Mar 4 12:00 Noon, Mendrisio, Weather by CustomWeather, © 2015

Note: Actual official high and low records may vary slightly from our data, if they occured in-between our weather recording intervals... More about our weather records

Advertising

Mendrisio weather history for previous 24 hours

 ConditionsComfort  
Time TempWeatherWind HumidityBarometerVisibility
12:00 PM
Wed, Mar 4
52 °FCool.2 mph61%30.12 "HgN/A
11:00 AM49 °FCool.2 mph67%30.16 "HgN/A
10:00 AM45 °FQuite cool.2 mph69%30.19 "HgN/A
9:00 AM39 °FChilly.No wind84%30.22 "HgN/A
8:00 AM33 °FChilly.1 mph95%30.23 "HgN/A
7:00 AM30 °FChilly.1 mph99%30.23 "HgN/A
6:00 AM32 °FChilly.1 mph89%30.23 "HgN/A
5:00 AM32 °FChilly.2 mph89%30.23 "HgN/A
3:00 AM35 °FChilly.1 mph88%30.24 "HgN/A
2:00 AM35 °FChilly.1 mph82%30.25 "HgN/A
1:00 AM35 °FChilly.2 mph91%30.26 "HgN/A
12:00 AM37 °FChilly.2 mph77%30.27 "HgN/A
11:00 PM
Tue, Mar 3
37 °FChilly.2 mph74%30.27 "HgN/A
10:00 PM37 °FChilly.2 mph69%30.27 "HgN/A
9:00 PM40 °FChilly.2 mph62%30.26 "HgN/A
8:00 PM42 °FQuite cool.1 mph56%30.24 "HgN/A
7:00 PM45 °FQuite cool.1 mph52%30.22 "HgN/A
6:00 PM52 °FCool.1 mph43%30.17 "HgN/A
5:00 PM55 °FCool.3 mph38%30.15 "HgN/A
4:00 PM56 °FRefreshingly cool.6 mph34%30.15 "HgN/A
3:00 PM57 °FRefreshingly cool.5 mph33%30.15 "HgN/A
2:00 PM57 °FRefreshingly cool.3 mph34%30.15 "HgN/A
1:00 PM58 °FRefreshingly cool.5 mph30%30.15 "HgN/A
Weather by CustomWeather, © 2015

See weather overviewHow to use our weather pages